DLH41D EDDF-CYVR

Flight info

Callsign DLH41D
Flight time N/A
Altitude 38000
Route MARUN6E MARUN Y152 ARPEG Z850 ABILU DCT ATPAQ DCT OMIMA DCT ATNAK DCT GUNPA/M085F380 DCT 65N010W 6730N02000W 70N030W 72N040W 73N060W DCT MEDPA/N0494F380 DCT 71N080W 6830N09000W 65N100W 60N110W 55N116W DCT MERYT DCT BOOTH CANUC6
Aircraft A388/J-SADE2E3FGHIJ3J4J5M1RWXY/LB1D1

Departure

Time N/A
Airport Frankfurt Main Airport (EDDF)

Arrival

Time 2026-05-01 07:23
Airport Vancouver International Airport (CYVR)
Time Latitude Longitude Altitude Speed Heading
2026-05-01 07:23 49.19178 -123.18718 28 ft 1 kts 143°
2026-05-01 07:23 49.19137 -123.18615 28 ft 10 kts 75°
2026-05-01 07:24 49.19134 -123.18506 28 ft 11 kts 140°
2026-05-01 07:24 49.19102 -123.18400 28 ft 12 kts 72°
2026-05-01 07:24 49.19107 -123.18381 28 ft 0 kts 65°
2026-05-01 07:24 49.19109 -123.18374 28 ft 4 kts 65°
2026-05-01 07:25 49.19114 -123.18344 28 ft 7 kts 90°
2026-05-01 07:25 49.19116 -123.18277 28 ft 8 kts 86°
2026-05-01 07:25 49.19114 -123.18204 28 ft 6 kts 89°
2026-05-01 07:25 49.19126 -123.18178 28 ft 5 kts 18°
2026-05-01 07:26 49.19161 -123.18162 28 ft 0 kts 12°
2026-05-01 07:28 49.19688 -123.12684 529 ft 137 kts 277°
2026-05-01 07:28 49.19850 -123.14119 321 ft 135 kts 275°
2026-05-01 07:28 49.20002 -123.15534 144 ft 134 kts 276°
2026-05-01 07:28 49.20158 -123.16943 39 ft 132 kts 278°
2026-05-01 07:29 49.20291 -123.18115 28 ft 82 kts 280°
2026-05-01 07:29 49.20348 -123.18594 30 ft 10 kts 284°
2026-05-01 07:29 49.20361 -123.18689 30 ft 28 kts 279°
2026-05-01 07:29 49.20394 -123.19077 27 ft 37 kts 271°
2026-05-01 07:30 49.20381 -123.19236 26 ft 45 kts 252°
2026-05-01 07:30 49.20058 -123.16043 90 ft 134 kts 276°
2026-05-01 07:30 49.20209 -123.17421 27 ft 121 kts 280°
2026-05-01 07:30 49.20320 -123.18375 29 ft 56 kts 279°
2026-05-01 07:31 49.20349 -123.18600 30 ft 0 kts 284°
2026-05-01 07:31 49.19877 -123.14366 284 ft 136 kts 273°